| time (UTC) | temp C | wind direction | speed KPH | gust KPH | rain 1hr cm | rain 24hr cm | rain mn cm | humidity % | barometer mb |
| 20260505035937 | 16 | 179 | 3.2 | 4.8 | 0.00 | 0.53 | 0.53 | 72 | 1002.3 |
| 20260505035432 | 16 | 179 | 3.2 | 6.4 | 0.00 | 0.53 | 0.53 | 72 | 1002.2 |
| 20260505034930 | 16 | 152 | 3.2 | 9.7 | 0.00 | 0.53 | 0.53 | 72 | 1002.3 |
| 20260505034426 | 16 | 181 | 4.8 | 6.4 | 0.00 | 0.53 | 0.53 | 73 | 1002.5 |
| 20260505033924 | 16 | 242 | 6.4 | 6.4 | 0.00 | 0.53 | 0.53 | 73 | 1002.3 |
| 20260505033420 | 16 | 187 | 3.2 | 6.4 | 0.00 | 0.53 | 0.53 | 73 | 1002.1 |
| 20260505032918 | 17 | 184 | 3.2 | 6.4 | 0.00 | 0.53 | 0.53 | 72 | 1002.1 |
| 20260505032415 | 17 | 231 | 6.4 | 9.7 | 0.00 | 0.53 | 0.53 | 71 | 1001.9 |
| 20260505031912 | 17 | 243 | 4.8 | 9.7 | 0.00 | 0.53 | 0.53 | 70 | 1001.8 |
| 20260505031409 | 17 | 152 | 3.2 | 11.3 | 0.00 | 0.53 | 0.53 | 70 | 1001.8 |
| 20260505030906 | 17 | 251 | 6.4 | 12.9 | 0.00 | 0.53 | 0.53 | 69 | 1001.7 |
| 20260505030401 | 17 | 213 | 6.4 | 11.3 | 0.00 | 0.53 | 0.53 | 69 | 1001.6 |
| 20260505025857 | 17 | 215 | 9.7 | 12.9 | 0.00 | 0.53 | 0.53 | 70 | 1001.9 |
| 20260505025355 | 17 | 212 | 9.7 | 17.7 | 0.00 | 0.53 | 0.53 | 71 | 1002.0 |
| 20260505024854 | 16 | 230 | 8.0 | 11.3 | 0.00 | 0.53 | 0.53 | 74 | 1002.1 |
| 20260505024351 | 16 | 163 | 6.4 | 9.7 | 0.00 | 0.53 | 0.53 | 75 | 1001.9 |
| 20260505023847 | 16 | 157 | 8.0 | 12.9 | 0.00 | 0.53 | 0.53 | 75 | 1001.9 |
| 20260505023345 | 16 | 232 | 6.4 | 6.4 | 0.00 | 0.53 | 0.53 | 77 | 1001.7 |
| 20260505022842 | 16 | 165 | 4.8 | 4.8 | 0.00 | 0.53 | 0.53 | 77 | 1001.6 |
| 20260505022339 | 16 | 195 | 4.8 | 4.8 | 0.00 | 0.53 | 0.53 | 78 | 1001.4 |
| 20260505021836 | 16 | 189 | 4.8 | 6.4 | 0.00 | 0.53 | 0.53 | 77 | 1001.1 |
| 20260505021332 | 16 | 202 | 4.8 | 9.7 | 0.00 | 0.53 | 0.53 | 77 | 1000.9 |
| 20260505020828 | 16 | 171 | 3.2 | 9.7 | 0.00 | 0.53 | 0.53 | 77 | 1000.7 |
| 20260505020324 | 16 | 183 | 6.4 | 9.7 | 0.00 | 0.53 | 0.53 | 76 | 1000.5 |
| 20260505015821 | 16 | 137 | 6.4 | 6.4 | 0.00 | 0.53 | 0.53 | 76 | 1000.7 |
| 20260505015318 | 17 | 169 | 6.4 | 6.4 | 0.00 | 0.53 | 0.53 | 75 | 1000.5 |
| 20260505014815 | 17 | 201 | 6.4 | 11.3 | 0.00 | 0.53 | 0.53 | 75 | 1000.4 |
| 20260505014312 | 17 | 144 | 4.8 | 14.5 | 0.00 | 0.53 | 0.53 | 74 | 1000.3 |
| 20260505013809 | 17 | 173 | 9.7 | 14.5 | 0.00 | 0.53 | 0.53 | 75 | 1000.1 |
| 20260505013306 | 17 | 208 | 9.7 | 17.7 | 0.00 | 0.53 | 0.53 | 75 | 1000.2 |
| 20260505012804 | 17 | 191 | 8.0 | 14.5 | 0.00 | 0.53 | 0.53 | 77 | 1000.2 |
| 20260505012304 | 17 | 211 | 6.4 | 11.3 | 0.00 | 0.53 | 0.53 | 78 | 1000.2 |
| 20260505011757 | 17 | 194 | 11.3 | 22.5 | 0.00 | 0.53 | 0.53 | 78 | 1000.1 |
| 20260505011255 | 17 | 186 | 9.7 | 12.9 | 0.00 | 0.53 | 0.53 | 79 | 999.9 |
| 20260505010750 | 17 | 193 | 11.3 | 14.5 | 0.00 | 0.53 | 0.53 | 78 | 999.8 |
| 20260505010246 | 17 | 208 | 16.1 | 20.9 | 0.00 | 0.53 | 0.53 | 78 | 999.6 |
| 20260505005743 | 17 | 225 | 8.0 | 12.9 | 0.00 | 0.53 | 0.53 | 79 | 999.7 |
| 20260505005240 | 17 | 162 | 12.9 | 16.1 | 0.00 | 0.53 | 0.53 | 80 | 999.8 |
| 20260505004737 | 17 | 170 | 9.7 | 16.1 | 0.00 | 0.53 | 0.53 | 81 | 999.7 |
| 20260505004233 | 17 | 177 | 9.7 | 17.7 | 0.00 | 0.53 | 0.53 | 80 | 1000.0 |
| 20260505003731 | 17 | 128 | 8.0 | 14.5 | 0.00 | 0.53 | 0.53 | 80 | 999.7 |
| 20260505003228 | 17 | 149 | 6.4 | 11.3 | 0.00 | 0.53 | 0.53 | 80 | 999.0 |
| 20260505002725 | 17 | 163 | 6.4 | 11.3 | 0.00 | 0.53 | 0.53 | 79 | 998.9 |
| 20260505002222 | 17 | 156 | 11.3 | 14.5 | 0.00 | 0.53 | 0.53 | 79 | 998.9 |
| 20260505001719 | 17 | 157 | 4.8 | 17.7 | 0.00 | 0.53 | 0.53 | 81 | 998.8 |
| 20260505001217 | 17 | 149 | 9.7 | 14.5 | 0.00 | 0.53 | 0.53 | 82 | 998.9 |
| 20260505000714 | 16 | 191 | 8.0 | 17.7 | 0.00 | 0.53 | 0.53 | 83 | 999.0 |
| 20260505000212 | 16 | 148 | 12.9 | 16.1 | 0.00 | 0.53 | 0.53 | 87 | 999.1 |
| 20260504235708 | 16 | 155 | 4.8 | 6.4 | 0.00 | 0.53 | 0.53 | 88 | 999.2 |
| 20260504235204 | 15 | 166 | 3.2 | 3.2 | 0.00 | 0.53 | 0.53 | 89 | 999.0 |
| 20260504234702 | 15 | 99 | 1.6 | 3.2 | 0.00 | 0.53 | 0.53 | 89 | 999.0 |
| 20260504234159 | 15 | 137 | 6.4 | 9.7 | 0.00 | 0.53 | 0.53 | 89 | 999.0 |
| 20260504233654 | 15 | 115 | 1.6 | 4.8 | 0.00 | 0.53 | 0.53 | 89 | 999.1 |
| 20260504233150 | 15 | 74 | 1.6 | 1.6 | 0.00 | 0.53 | 0.53 | 87 | 999.1 |
| 20260504232648 | 15 | 87 | 4.8 | 6.4 | 0.00 | 0.53 | 0.53 | 87 | 999.3 |
| 20260504232145 | 15 | 97 | 3.2 | 6.4 | 0.79 | 0.53 | 0.53 | 88 | 999.4 |
| 20260504231642 | 15 | 92 | 0.0 | 6.4 | 1.98 | 0.53 | 0.53 | 88 | 999.5 |
| 20260504231138 | 16 | 153 | 6.4 | 9.7 | 2.34 | 0.38 | 0.38 | 84 | 1000.0 |
| 20260504230634 | 20 | 281 | 6.4 | 12.9 | 0.18 | 0.03 | 0.03 | 65 | 1000.2 |
| 20260504230133 | 22 | 308 | 6.4 | 14.5 | 0.00 | 0.00 | 0.00 | 55 | 999.6 |
| 20260504225631 | 22 | 349 | 6.4 | 11.3 | 0.00 | 0.00 | 0.00 | 51 | 999.0 |
| 20260504225127 | 22 | 155 | 1.6 | 3.2 | 0.00 | 0.00 | 0.00 | 51 | 998.8 |
| 20260504224624 | 22 | 179 | 4.8 | 9.7 | 0.00 | 0.00 | 0.00 | 50 | 999.0 |
| 20260504224120 | 22 | 196 | 6.4 | 14.5 | 0.00 | 0.00 | 0.00 | 49 | 999.0 |
| 20260504223618 | 23 | 166 | 9.7 | 22.5 | 0.00 | 0.00 | 0.00 | 48 | 998.6 |
| 20260504223113 | 23 | 168 | 9.7 | 20.9 | 0.00 | 0.00 | 0.00 | 48 | 999.0 |
| 20260504222610 | 24 | 194 | 14.5 | 22.5 | 0.00 | 0.00 | 0.00 | 46 | 999.0 |
| 20260504222108 | 24 | 203 | 17.7 | 25.7 | 0.00 | 0.00 | 0.00 | 44 | 998.7 |
| 20260504221605 | 25 | 213 | 9.7 | 17.7 | 0.00 | 0.00 | 0.00 | 42 | 999.0 |
| 20260504221102 | 25 | 215 | 14.5 | 24.1 | 0.00 | 0.00 | 0.00 | 41 | 998.8 |
| 20260504220558 | 25 | 178 | 12.9 | 22.5 | 0.00 | 0.00 | 0.00 | 41 | 998.9 |
| 20260504220055 | 26 | 210 | 14.5 | 17.7 | 0.00 | 0.00 | 0.00 | 40 | 999.1 |
| 20260504215552 | 26 | 194 | 17.7 | 24.1 | 0.00 | 0.00 | 0.00 | 38 | 999.0 |
| 20260504215049 | 26 | 230 | 6.4 | 12.9 | 0.00 | 0.00 | 0.00 | 38 | 998.9 |
| 20260504214545 | 26 | 177 | 14.5 | 24.1 | 0.00 | 0.00 | 0.00 | 38 | 999.0 |
| 20260504214042 | 26 | 181 | 16.1 | 22.5 | 0.00 | 0.00 | 0.00 | 36 | 999.1 |
| 20260504213538 | 26 | 263 | 19.3 | 33.8 | 0.00 | 0.00 | 0.00 | 36 | 999.0 |
| 20260504213035 | 26 | 174 | 12.9 | 29.0 | 0.00 | 0.00 | 0.00 | 36 | 999.1 |
| 20260504212531 | 25 | 224 | 14.5 | 24.1 | 0.00 | 0.00 | 0.00 | 37 | 999.2 |
| 20260504212028 | 26 | 196 | 19.3 | 33.8 | 0.00 | 0.00 | 0.00 | 37 | 999.1 |
| 20260504211525 | 26 | 179 | 12.9 | 20.9 | 0.00 | 0.00 | 0.00 | 38 | 999.5 |
| 20260504211022 | 26 | 230 | 17.7 | 35.4 | 0.00 | 0.00 | 0.00 | 37 | 999.5 |
| 20260504210519 | 26 | 142 | 9.7 | 16.1 | 0.00 | 0.00 | 0.00 | 39 | 999.5 |
| 20260504210016 | 26 | 211 | 14.5 | 22.5 | 0.00 | 0.00 | 0.00 | 37 | 999.5 |
| 20260504205514 | 25 | 176 | 11.3 | 35.4 | 0.00 | 0.00 | 0.00 | 39 | 999.5 |
| 20260504205012 | 25 | 164 | 14.5 | 27.4 | 0.00 | 0.00 | 0.00 | 38 | 999.6 |
| 20260504204509 | 25 | 211 | 16.1 | 27.4 | 0.00 | 0.00 | 0.00 | 38 | 999.6 |
| 20260504204008 | 26 | 227 | 14.5 | 22.5 | 0.00 | 0.00 | 0.00 | 36 | 999.8 |
| 20260504203506 | 26 | 223 | 19.3 | 24.1 | 0.00 | 0.00 | 0.00 | 35 | 999.7 |
| 20260504203002 | 26 | 191 | 11.3 | 17.7 | 0.00 | 0.00 | 0.00 | 35 | 999.6 |
| 20260504202458 | 27 | 222 | 17.7 | 20.9 | 0.00 | 0.00 | 0.00 | 33 | 999.7 |
| 20260504201955 | 26 | 261 | 16.1 | 20.9 | 0.00 | 0.00 | 0.00 | 34 | 999.7 |
| 20260504201453 | 26 | 182 | 11.3 | 16.1 | 0.00 | 0.00 | 0.00 | 38 | 999.7 |
| 20260504200950 | 26 | 164 | 9.7 | 17.7 | 0.00 | 0.00 | 0.00 | 38 | 999.6 |
| 20260504200447 | 26 | 213 | 6.4 | 16.1 | 0.00 | 0.00 | 0.00 | 38 | 999.9 |
| 20260504195943 | 26 | 210 | 14.5 | 20.9 | 0.00 | 0.00 | 0.00 | 37 | 1000.1 |
| 20260504195439 | 25 | 209 | 9.7 | 25.7 | 0.00 | 0.00 | 0.00 | 39 | 1000.1 |
| 20260504194936 | 26 | 188 | 6.4 | 17.7 | 0.00 | 0.00 | 0.00 | 38 | 1000.2 |
| 20260504194432 | 25 | 180 | 9.7 | 16.1 | 0.00 | 0.00 | 0.00 | 38 | 1000.4 |
| 20260504193928 | 26 | 205 | 9.7 | 17.7 | 0.00 | 0.00 | 0.00 | 37 | 1000.4 |
| 20260504193425 | 25 | 230 | 8.0 | 12.9 | 0.00 | 0.00 | 0.00 | 34 | 1000.5 |
| 20260504192924 | 25 | 250 | 8.0 | 17.7 | 0.00 | 0.00 | 0.00 | 37 | 1000.5 |
| 20260504192421 | 25 | 218 | 12.9 | 29.0 | 0.00 | 0.00 | 0.00 | 36 | 1000.5 |
| 20260504191920 | 26 | 222 | 12.9 | 16.1 | 0.00 | 0.00 | 0.00 | 38 | 1000.5 |
| 20260504191418 | 26 | 230 | 12.9 | 17.7 | 0.00 | 0.00 | 0.00 | 37 | 1000.5 |
| 20260504190912 | 26 | 186 | 12.9 | 17.7 | 0.00 | 0.00 | 0.00 | 37 | 1000.6 |
| 20260504190408 | 26 | 129 | 11.3 | 20.9 | 0.00 | 0.00 | 0.00 | 36 | 1000.6 |
| 20260504185905 | 26 | 168 | 6.4 | 20.9 | 0.00 | 0.00 | 0.00 | 37 | 1000.7 |
| 20260504185403 | 25 | 237 | 14.5 | 22.5 | 0.00 | 0.00 | 0.00 | 36 | 1000.8 |
| 20260504184858 | 25 | 235 | 11.3 | 17.7 | 0.00 | 0.00 | 0.00 | 35 | 1001.0 |
| 20260504184354 | 26 | 252 | 17.7 | 30.6 | 0.00 | 0.00 | 0.00 | 34 | 1001.1 |
| 20260504183850 | 25 | 158 | 16.1 | 20.9 | 0.00 | 0.00 | 0.00 | 33 | 1000.7 |
| 20260504183348 | 25 | 199 | 19.3 | 25.7 | 0.00 | 0.00 | 0.00 | 33 | 1000.7 |
| 20260504182845 | 25 | 175 | 8.0 | 17.7 | 0.00 | 0.00 | 0.00 | 33 | 1000.9 |
| 20260504182343 | 25 | 268 | 14.5 | 16.1 | 0.00 | 0.00 | 0.00 | 32 | 1001.0 |
| 20260504181839 | 25 | 217 | 17.7 | 25.7 | 0.00 | 0.00 | 0.00 | 36 | 1001.0 |
| 20260504181337 | 25 | 183 | 17.7 | 30.6 | 0.00 | 0.00 | 0.00 | 36 | 1001.2 |
| 20260504180836 | 25 | 182 | 9.7 | 29.0 | 0.00 | 0.00 | 0.00 | 34 | 1001.1 |
| 20260504180334 | 25 | 228 | 11.3 | 16.1 | 0.00 | 0.00 | 0.00 | 34 | 1001.4 |
| 20260504175832 | 23 | 217 | 3.2 | 20.9 | 0.00 | 0.00 | 0.00 | 37 | 1001.3 |
| 20260504175328 | 24 | 232 | 16.1 | 24.1 | 0.00 | 0.00 | 0.00 | 36 | 1001.4 |
| 20260504174826 | 24 | 127 | 9.7 | 20.9 | 0.00 | 0.00 | 0.00 | 38 | 1001.4 |
| 20260504174323 | 24 | 237 | 9.7 | 25.7 | 0.00 | 0.00 | 0.00 | 37 | 1001.4 |
| 20260504173820 | 23 | 189 | 16.1 | 20.9 | 0.00 | 0.00 | 0.00 | 35 | 1001.5 |
| 20260504173317 | 23 | 164 | 6.4 | 17.7 | 0.00 | 0.00 | 0.00 | 40 | 1001.6 |
| 20260504172814 | 23 | 170 | 22.5 | 40.2 | 0.00 | 0.00 | 0.00 | 38 | 1001.5 |
| 20260504172310 | 23 | 169 | 8.0 | 17.7 | 0.00 | 0.00 | 0.00 | 40 | 1001.8 |
| 20260504171806 | 23 | 230 | 16.1 | 20.9 | 0.00 | 0.00 | 0.00 | 38 | 1001.7 |
| 20260504171304 | 23 | 172 | 12.9 | 16.1 | 0.00 | 0.00 | 0.00 | 41 | 1001.7 |
| 20260504170801 | 23 | 172 | 8.0 | 17.7 | 0.00 | 0.00 | 0.00 | 40 | 1001.9 |
| 20260504170258 | 23 | 222 | 14.5 | 22.5 | 0.00 | 0.00 | 0.00 | 40 | 1002.3 |
| 20260504160216 | 22 | 194 | 11.3 | 24.1 | 0.00 | 0.00 | 0.00 | 42 | 1003.0 |
| 20260504151144 | 21 | 168 | 4.8 | 12.9 | 0.00 | 0.00 | 0.00 | 48 | 1003.5 |
| 20260504150641 | 20 | 146 | 8.0 | 17.7 | 0.00 | 0.00 | 0.00 | 48 | 1003.7 |
| 20260504150138 | 20 | 225 | 9.7 | 16.1 | 0.00 | 0.00 | 0.00 | 49 | 1003.7 |
| 20260504141107 | 17 | 139 | 11.3 | 16.1 | 0.00 | 0.00 | 0.00 | 55 | 1004.3 |
| 20260504140603 | 17 | 186 | 9.7 | 12.9 | 0.00 | 0.00 | 0.00 | 56 | 1004.3 |
| 20260504130528 | 13 | 166 | 4.8 | 9.7 | 0.00 | 0.00 | 0.00 | 71 | 1004.9 |
| 20260504110415 | 8 | 135 | 1.6 | 9.7 | 0.00 | 0.00 | 0.00 | 85 | 1005.2 |
| 20260504100332 | 8 | 168 | 1.6 | 3.2 | 0.00 | 0.00 | 0.00 | 84 | 1005.3 |
| 20260504081725 | 9 | 138 | 1.6 | 3.2 | 0.00 | 0.00 | 0.00 | 85 | 1005.1 |
| 20260504081222 | 9 | 153 | 3.2 | 3.2 | 0.00 | 0.00 | 0.00 | 83 | 1005.1 |
| 20260504080718 | 9 | 166 | 6.4 | 6.4 | 0.00 | 0.00 | 0.00 | 83 | 1005.1 |
| 20260504080215 | 9 | 153 | 0.0 | 1.6 | 0.00 | 0.00 | 0.00 | 83 | 1005.0 |
| 20260504070142 | 11 | 187 | 3.2 | 6.4 | 0.00 | 0.00 | 0.00 | 74 | 1005.8 |
| 20260504050531 | 13 | 165 | 3.2 | 6.4 | 0.00 | 0.00 | 0.00 | 71 | 1006.7 |
| 20260504045525 | 13 | 153 | 6.4 | 9.7 | 0.00 | 0.00 | 0.00 | 71 | 1006.6 |
| 20260504045020 | 13 | 180 | 1.6 | 4.8 | 0.00 | 0.00 | 0.00 | 71 | 1006.9 |
| 20260504044518 | 13 | 183 | 6.4 | 9.7 | 0.00 | 0.00 | 0.00 | 70 | 1006.8 |
| 20260504044015 | 13 | 168 | 8.0 | 9.7 | 0.00 | 0.00 | 0.00 | 70 | 1006.9 |
| 20260504043512 | 13 | 169 | 3.2 | 6.4 | 0.00 | 0.00 | 0.00 | 69 | 1007.1 |
| 20260504043009 | 13 | 192 | 6.4 | 6.4 | 0.00 | 0.00 | 0.00 | 69 | 1006.8 |
| 20260504042506 | 13 | 151 | 3.2 | 9.7 | 0.00 | 0.00 | 0.00 | 68 | 1006.7 |
| 20260504042003 | 13 | 191 | 3.2 | 9.7 | 0.00 | 0.00 | 0.00 | 67 | 1006.9 |
| 20260504041459 | 14 | 147 | 8.0 | 11.3 | 0.00 | 0.00 | 0.00 | 66 | 1006.7 |
| 20260504040954 | 14 | 175 | 3.2 | 11.3 | 0.00 | 0.00 | 0.00 | 66 | 1006.6 |
| 20260504040453 | 14 | 124 | 3.2 | 12.9 | 0.00 | 0.00 | 0.00 | 66 | 1006.7 |